Location: Ferchesar
(52.6477°N, 12.4298°E)
Time: 08:38:11
(UTC+01:00)

S-56A Canister/Altair - Pass Details

Date: 14 December 2021
Orbit: 633 x 2499 km, 38.9° (Epoch: 19 January)

Event Time Altitude Azimuth Distance (km) Brightness Sun altitude
Rises 18:06:38 0° 184° (S) 6,166 12.4 -18.5°
Reaches altitude 10° 18:13:39 10° 163° (SSE) 5,092 11.7 -19.5°
Maximum altitude 18:19:55 14° 137° (SE) 4,565 11.2 -20.5°
Enters shadow 18:23:40 12° 120° (ESE) 4,553 11.0 -21.0°
Drops below altitude 10° 18:25:41 10° 111° (ESE) 4,653 - -21.3°
Sets 18:31:25 0° 90° (E) 5,304 - -22.2°
